Temp: 14.1°C   Baro: 1018.2mb
  Wind: 4.0mph   Dir: NE (47°)
  Rain: 0.0mm (0.0mm/hr)
  Solar: 0W/m2  Hum: 84%
 
Bath Spa Weather Station Historical Data
Daily Summary for February 15, 2020 Units:  Metric    English   Both
Daily Weekly Monthly Yearly Custom
  High: Low: Average:
Temperature: 13.4 °C 10.9 °C 12.1 °C
Dew Point: 11.8 °C 9.9 °C 10.7 °C
Humidity: 94% 88.6% 91%
Wind Speed: 38.1km/h 4.3km/h 17.4km/h
Wind Gust: 64.4km/h - -
Wind- - SW
Pressure: 1012.8 hPa 992.4 hPa -
Precipitation: 11.43 mm    
Historical Graphs
 
 
Tabular Data for February 15, 2020
Time Temperature Dew Point Pressure Wind Wind Speed Wind Gust Humidity Rainfall Rate (Hourly) solar
00:04 11.1 °C 10.2 °C 1012.8 hPa SW 6.4 km/h 14.5 km/h 94% 1.27 mm 0 W/m2
00:09 11.1 °C 10.2 °C 1012.8 hPa SSW 6.4 km/h 12.9 km/h 94% 1.02 mm 0 W/m2
00:14 11.2 °C 10.2 °C 1012.8 hPa SW 7.6 km/h 16.1 km/h 94% 0.76 mm 0 W/m2
00:19 11.2 °C 10.2 °C 1012.4 hPa SW 4.5 km/h 11.3 km/h 94% 0.76 mm 0 W/m2
00:24 11.2 °C 10.2 °C 1012.8 hPa SW 8 km/h 12.9 km/h 93.8% 0.51 mm 0 W/m2
00:29 11.2 °C 10.1 °C 1012.8 hPa SSW 6.3 km/h 14.5 km/h 93% 0.25 mm 0 W/m2
00:34 11.2 °C 10.1 °C 1012.8 hPa SSW 8.4 km/h 14.5 km/h 93% 0 mm 0 W/m2
00:39 11.2 °C 10.1 °C 1012.8 hPa SW 8 km/h 16.1 km/h 93% 0 mm 0 W/m2
00:44 11.2 °C 10.1 °C 1012.8 hPa SW 8.2 km/h 16.1 km/h 93% 0 mm 0 W/m2
00:49 11.2 °C 10.1 °C 1012.8 hPa SW 8 km/h 20.9 km/h 93% 0 mm 0 W/m2
00:54 11.2 °C 10.1 °C 1012.4 hPa SSW 6.3 km/h 16.1 km/h 93% 0 mm 0 W/m2
00:59 11.2 °C 10.1 °C 1012.4 hPa SW 9 km/h 14.5 km/h 93% 0.25 mm 0 W/m2
01:04 11.2 °C 10.1 °C 1012.4 hPa SSW 7.6 km/h 20.9 km/h 93% 0.25 mm 0 W/m2
01:09 11.1 °C 10 °C 1012.4 hPa SW 4.3 km/h 14.5 km/h 93% 0.25 mm 0 W/m2
01:14 11.1 °C 10 °C 1012.1 hPa SSW 6.4 km/h 11.3 km/h 93% 0.25 mm 0 W/m2
01:19 11.1 °C 10.1 °C 1012.1 hPa SSW 7.1 km/h 19.3 km/h 93.2% 0.25 mm 0 W/m2
01:24 11.1 °C 10 °C 1011.7 hPa SSW 7.6 km/h 12.9 km/h 93% 0.25 mm 0 W/m2
01:28 11.1 °C 10 °C 1011.7 hPa SSW 6.4 km/h 14.5 km/h 93% 0.25 mm 0 W/m2
01:34 11.1 °C 10 °C 1011.7 hPa SSW 5 km/h 14.5 km/h 93% 0.25 mm 0 W/m2
01:39 11.1 °C 10 °C 1011.7 hPa SW 8.7 km/h 19.3 km/h 93% 0.25 mm 0 W/m2
01:44 11.1 °C 9.9 °C 1011.7 hPa SSW 6.1 km/h 12.9 km/h 93% 0.25 mm 0 W/m2
01:49 11 °C 9.9 °C 1011.7 hPa SSW 5.6 km/h 11.3 km/h 93.2% 0.25 mm 0 W/m2
01:54 10.9 °C 9.9 °C 1011.7 hPa SSW 6.3 km/h 14.5 km/h 93.3% 0.25 mm 0 W/m2
01:59 10.9 °C 10 °C 1011.7 hPa SSW 4.3 km/h 11.3 km/h 94% 0 mm 0 W/m2
02:04 10.9 °C 10 °C 1011.7 hPa SW 6.6 km/h 14.5 km/h 94% 0 mm 0 W/m2
02:09 10.9 °C 10 °C 1011.4 hPa SW 10 km/h 14.5 km/h 94% 0 mm 0 W/m2
02:14 10.9 °C 10 °C 1011.4 hPa SW 11.1 km/h 16.1 km/h 94% 0 mm 0 W/m2
02:19 10.9 °C 10 °C 1011.4 hPa SW 7.1 km/h 16.1 km/h 94% 0 mm 0 W/m2
02:23 10.9 °C 10 °C 1011.4 hPa SW 8 km/h 14.5 km/h 94% 0 mm 0 W/m2
02:29 10.9 °C 10.1 °C 1011.1 hPa WSW 9.3 km/h 16.1 km/h 94% 0 mm 0 W/m2
02:34 10.9 °C 10.1 °C 1011.1 hPa SSW 8 km/h 14.5 km/h 94% 0 mm 0 W/m2
02:39 10.9 °C 10.1 °C 1011.1 hPa SW 7.6 km/h 14.5 km/h 94% 0 mm 0 W/m2
02:44 11 °C 10.1 °C 1010.7 hPa SW 10.3 km/h 17.7 km/h 94% 0 mm 0 W/m2
02:49 11.1 °C 10.2 °C 1010.7 hPa SW 9.7 km/h 16.1 km/h 94% 0 mm 0 W/m2
02:54 11.1 °C 10.2 °C 1010.7 hPa SW 10.3 km/h 19.3 km/h 94% 0 mm 0 W/m2
02:59 11.1 °C 10.2 °C 1010.7 hPa SW 7.4 km/h 17.7 km/h 94% 0 mm 0 W/m2
03:04 11.2 °C 10.2 °C 1010.7 hPa SSW 9.8 km/h 17.7 km/h 94% 0 mm 0 W/m2
03:09 11.2 °C 10.3 °C 1010.4 hPa SSW 10 km/h 17.7 km/h 94% 0 mm 0 W/m2
03:14 11.2 °C 10.3 °C 1010.4 hPa SSW 6.6 km/h 19.3 km/h 94% 0 mm 0 W/m2
03:19 11.2 °C 10.3 °C 1010 hPa SW 8.9 km/h 19.3 km/h 94% 0 mm 0 W/m2
03:24 11.3 °C 10.4 °C 1010 hPa SSW 11.9 km/h 24.1 km/h 94% 0 mm 0 W/m2
03:29 11.3 °C 10.4 °C 1010 hPa SSW 10.8 km/h 25.7 km/h 94% 0 mm 0 W/m2
03:34 11.3 °C 10.4 °C 1010 hPa SSW 11.1 km/h 24.1 km/h 94% 0 mm 0 W/m2
03:39 11.3 °C 10.4 °C 1010 hPa SW 9.3 km/h 19.3 km/h 94% 0 mm 0 W/m2
03:44 11.4 °C 10.5 °C 1009.7 hPa SSW 10.6 km/h 27.4 km/h 94% 0 mm 0 W/m2
03:49 11.4 °C 10.5 °C 1009.4 hPa SSW 11.9 km/h 27.4 km/h 94% 0 mm 0 W/m2
03:54 11.4 °C 10.6 °C 1009.7 hPa WSW 12.6 km/h 24.1 km/h 94% 0 mm 0 W/m2
03:59 11.5 °C 10.6 °C 1009.7 hPa SSW 9.2 km/h 20.9 km/h 94% 0 mm 0 W/m2
04:04 11.6 °C 10.7 °C 1009.4 hPa SSW 10.3 km/h 24.1 km/h 94% 0.25 mm 0 W/m2
04:09 11.6 °C 10.6 °C 1009.4 hPa South 10.6 km/h 19.3 km/h 93.2% 0.25 mm 0 W/m2
04:14 11.6 °C 10.5 °C 1009.4 hPa South 8.7 km/h 20.9 km/h 93% 0.25 mm 0 W/m2
04:19 11.6 °C 10.5 °C 1009 hPa South 13.5 km/h 22.5 km/h 93% 0.25 mm 0 W/m2
04:24 11.6 °C 10.5 °C 1009 hPa SSW 12.9 km/h 20.9 km/h 93% 0.25 mm 0 W/m2
04:29 11.7 °C 10.6 °C 1009 hPa South 11.4 km/h 25.7 km/h 93% 0.25 mm 0 W/m2
04:34 11.7 °C 10.6 °C 1009 hPa SSW 12.7 km/h 25.7 km/h 93% 0.25 mm 0 W/m2
04:39 11.7 °C 10.6 °C 1009 hPa SSW 10 km/h 24.1 km/h 93% 0.25 mm 0 W/m2
04:44 11.7 °C 10.6 °C 1009 hPa SW 13.8 km/h 25.7 km/h 93% 0.25 mm 0 W/m2
04:49 11.8 °C 10.7 °C 1008.7 hPa SW 16.1 km/h 30.6 km/h 93% 0.25 mm 0 W/m2
04:54 11.8 °C 10.7 °C 1008.7 hPa SW 15 km/h 33.8 km/h 93% 0.25 mm 0 W/m2
04:59 11.8 °C 10.6 °C 1008.4 hPa SSW 9.2 km/h 22.5 km/h 92.4% 0.25 mm 0 W/m2
05:04 11.8 °C 10.5 °C 1008.4 hPa SSW 10.5 km/h 29 km/h 92% 0.25 mm 0 W/m2
05:09 11.7 °C 10.4 °C 1008.4 hPa SSW 13.8 km/h 20.9 km/h 92% 0 mm 0 W/m2
05:14 11.7 °C 10.4 °C 1008.4 hPa SW 16.7 km/h 35.4 km/h 92% 0 mm 0 W/m2
05:19 11.8 °C 10.5 °C 1008.7 hPa SW 16.6 km/h 37 km/h 92% 0 mm 0 W/m2
05:24 11.8 °C 10.5 °C 1008.4 hPa SSW 15.1 km/h 30.6 km/h 92% 0 mm 0 W/m2
05:29 11.8 °C 10.4 °C 1008.4 hPa SW 15.3 km/h 29 km/h 92% 0 mm 0 W/m2
05:34 11.7 °C 10.4 °C 1008.4 hPa SW 12.2 km/h 33.8 km/h 92% 0 mm 0 W/m2
05:39 11.7 °C 10.4 °C 1008.4 hPa SSW 13.5 km/h 32.2 km/h 92% 0 mm 0 W/m2
05:44 11.7 °C 10.4 °C 1008.4 hPa SW 18.3 km/h 33.8 km/h 92% 0 mm 0 W/m2
05:49 11.8 °C 10.4 °C 1008.4 hPa SW 19.6 km/h 38.6 km/h 92% 0 mm 0 W/m2
05:54 11.8 °C 10.5 °C 1008.4 hPa SW 11.6 km/h 35.4 km/h 92% 0 mm 0 W/m2
05:59 11.8 °C 10.5 °C 1008 hPa SW 16.6 km/h 35.4 km/h 92% 0 mm 0 W/m2
06:04 11.9 °C 10.6 °C 1008 hPa SW 17.4 km/h 35.4 km/h 92% 0 mm 0 W/m2
06:09 11.9 °C 10.6 °C 1008 hPa SW 25.3 km/h 43.5 km/h 92% 0 mm 0 W/m2
06:14 11.9 °C 10.6 °C 1007.7 hPa SSW 13.8 km/h 38.6 km/h 91.8% 0 mm 0 W/m2
06:19 11.8 °C 10.5 °C 1007.7 hPa SSW 12.4 km/h 35.4 km/h 91.4% 0 mm 0 W/m2
06:24 11.8 °C 10.4 °C 1007.3 hPa SW 17.4 km/h 40.2 km/h 91.6% 0 mm 0 W/m2
06:29 11.8 °C 10.5 °C 1007 hPa SSW 18.8 km/h 40.2 km/h 92% 0 mm 0 W/m2
06:34 11.8 °C 10.5 °C 1007.3 hPa SW 18.7 km/h 37 km/h 92% 0 mm 0 W/m2
06:39 11.8 °C 10.6 °C 1007 hPa SSW 20.4 km/h 40.2 km/h 91.8% 0 mm 0 W/m2
06:44 11.9 °C 10.5 °C 1007 hPa SW 22.5 km/h 43.5 km/h 91% 0 mm 0 W/m2
06:49 11.9 °C 10.6 °C 1007 hPa SW 25.1 km/h 43.5 km/h 91% 0 mm 0 W/m2
06:53 12 °C 10.6 °C 1007 hPa SW 20.6 km/h 41.8 km/h 91% 0 mm 0 W/m2
06:59 11.9 °C 10.6 °C 1007 hPa SSW 22.2 km/h 40.2 km/h 91% 0 mm 0 W/m2
07:04 11.9 °C 10.5 °C 1007 hPa SSW 15.4 km/h 40.2 km/h 91% 0 mm 0 W/m2
07:09 11.9 °C 10.5 °C 1007 hPa South 18.3 km/h 40.2 km/h 91% 0 mm 0 W/m2
07:14 11.8 °C 10.4 °C 1007 hPa SW 14.2 km/h 38.6 km/h 91% 0 mm 0 W/m2
07:19 11.8 °C 10.4 °C 1007 hPa SW 16.6 km/h 35.4 km/h 91% 0 mm 0 W/m2
07:24 11.8 °C 10.4 °C 1007 hPa SSW 18.2 km/h 33.8 km/h 91% 0 mm 0 W/m2
07:29 11.8 °C 10.5 °C 1007 hPa SW 14.5 km/h 33.8 km/h 92% 0 mm 0 W/m2
07:34 11.7 °C 10.4 °C 1006.7 hPa SW 21.7 km/h 37 km/h 92% 0 mm 0 W/m2
07:39 11.7 °C 10.4 °C 1006.7 hPa SSW 18 km/h 37 km/h 92% 0 mm 0 W/m2
07:44 11.7 °C 10.4 °C 1006.3 hPa SSW 16.4 km/h 32.2 km/h 92% 0 mm 0 W/m2
07:49 11.7 °C 10.4 °C 1006.3 hPa South 21.2 km/h 48.3 km/h 92% 0 mm 5 W/m2
07:54 11.8 °C 10.4 °C 1006.3 hPa SSW 19 km/h 45.1 km/h 91% 0 mm 5 W/m2
07:59 11.8 °C 10.4 °C 1006.3 hPa SSW 21.6 km/h 46.7 km/h 91% 0 mm 7 W/m2
08:04 11.8 °C 10.4 °C 1006.3 hPa SSW 17.1 km/h 49.9 km/h 91% 0 mm 12 W/m2
08:09 11.9 °C 10.3 °C 1006.3 hPa SSW 19.6 km/h 49.9 km/h 90.2% 0 mm 18 W/m2
08:14 11.9 °C 10.3 °C 1006.3 hPa SW 14.2 km/h 38.6 km/h 90% 0 mm 12 W/m2
08:19 11.9 °C 10.3 °C 1006.7 hPa SSW 20.6 km/h 43.5 km/h 90% 0 mm 12 W/m2
08:24 11.9 °C 10.2 °C 1006.3 hPa SSW 19.6 km/h 43.5 km/h 89.6% 0 mm 12 W/m2
08:29 11.9 °C 10.1 °C 1006.3 hPa SSW 19.3 km/h 40.2 km/h 89% 0 mm 12 W/m2
08:34 11.9 °C 10.1 °C 1006.3 hPa SW 16.9 km/h 33.8 km/h 89% 0 mm 11 W/m2
08:39 11.8 °C 10.2 °C 1006.3 hPa SSW 15.8 km/h 37 km/h 89.4% 0 mm 18 W/m2
08:44 11.8 °C 10.2 °C 1006.3 hPa SW 20.6 km/h 38.6 km/h 90% 0 mm 18 W/m2
08:49 11.8 °C 10.2 °C 1006 hPa SW 22.9 km/h 40.2 km/h 89.8% 0.25 mm 14 W/m2
08:54 11.9 °C 10.1 °C 1006 hPa SW 18 km/h 46.7 km/h 89% 0.25 mm 16 W/m2
08:59 11.9 °C 10.1 °C 1006 hPa SSW 18.5 km/h 37 km/h 89% 0.25 mm 25 W/m2
09:04 11.8 °C 10.1 °C 1005.6 hPa South 15.4 km/h 37 km/h 89% 0.25 mm 32 W/m2
09:09 11.8 °C 10.1 °C 1005.6 hPa SSW 12.6 km/h 40.2 km/h 89% 0.25 mm 28 W/m2
09:14 11.8 °C 10.1 °C 1005.6 hPa SSW 17.4 km/h 41.8 km/h 89.2% 0.25 mm 28 W/m2
09:19 11.8 °C 10.2 °C 1005.6 hPa South 18.7 km/h 41.8 km/h 90% 0.25 mm 28 W/m2
09:24 11.8 °C 10.2 °C 1005.6 hPa SSW 19.6 km/h 37 km/h 90% 0.25 mm 32 W/m2
09:29 11.8 °C 10.2 °C 1005.6 hPa SSW 17.7 km/h 35.4 km/h 90% 0.25 mm 26 W/m2
09:34 11.8 °C 10.2 °C 1005.3 hPa SSW 17.2 km/h 40.2 km/h 90% 0.25 mm 18 W/m2
09:39 11.8 °C 10.2 °C 1005.3 hPa SSW 11.6 km/h 29 km/h 90% 0.25 mm 16 W/m2
09:44 11.8 °C 10.3 °C 1005.3 hPa SSW 14.5 km/h 45.1 km/h 90.2% 0.25 mm 21 W/m2
09:49 11.8 °C 10.3 °C 1005 hPa SW 19.6 km/h 35.4 km/h 90.6% 0.25 mm 35 W/m2
09:54 11.8 °C 10.4 °C 1004.6 hPa SSW 16.7 km/h 33.8 km/h 91% 0.25 mm 44 W/m2
09:59 11.8 °C 10.3 °C 1004.6 hPa SSW 11.6 km/h 27.4 km/h 91% 0.25 mm 54 W/m2
10:04 11.8 °C 10.4 °C 1004.6 hPa SSW 17.4 km/h 33.8 km/h 91% 0.25 mm 46 W/m2
10:09 11.8 °C 10.4 °C 1004.6 hPa SSW 12.9 km/h 33.8 km/h 91% 0.25 mm 46 W/m2
10:14 11.8 °C 10.4 °C 1004.6 hPa South 23.2 km/h 37 km/h 91% 0.25 mm 30 W/m2
10:19 11.9 °C 10.4 °C 1004.3 hPa South 17.4 km/h 38.6 km/h 90.4% 0.25 mm 42 W/m2
10:24 11.8 °C 10.3 °C 1004.3 hPa SSW 20.9 km/h 32.2 km/h 90.6% 0.25 mm 42 W/m2
10:29 11.8 °C 10.4 °C 1004.3 hPa SW 17.1 km/h 32.2 km/h 91% 0.51 mm 32 W/m2
10:34 11.8 °C 10.4 °C 1004.3 hPa SW 23.5 km/h 48.3 km/h 91% 0.51 mm 44 W/m2
10:39 11.7 °C 10.3 °C 1004.3 hPa SSW 14.8 km/h 35.4 km/h 91% 0.76 mm 40 W/m2
10:44 11.7 °C 10.3 °C 1004.3 hPa SSW 15.3 km/h 37 km/h 91% 1.02 mm 40 W/m2
10:49 11.7 °C 10.3 °C 1004.3 hPa SSW 12.6 km/h 41.8 km/h 91% 1.02 mm 35 W/m2
10:54 11.8 °C 10.3 °C 1003.9 hPa SW 17.2 km/h 46.7 km/h 91% 0.76 mm 32 W/m2
10:59 11.8 °C 10.4 °C 1003.9 hPa SW 16.1 km/h 38.6 km/h 91% 0.76 mm 26 W/m2
11:04 11.8 °C 10.4 °C 1003.9 hPa SW 19.8 km/h 37 km/h 91% 1.02 mm 28 W/m2
11:09 11.9 °C 10.5 °C 1003.9 hPa SSW 12.4 km/h 37 km/h 91% 1.02 mm 30 W/m2
11:14 11.9 °C 10.5 °C 1003.9 hPa SSW 17.1 km/h 38.6 km/h 91% 1.27 mm 32 W/m2
11:19 11.9 °C 10.5 °C 1003.6 hPa SW 22.5 km/h 32.2 km/h 91% 1.27 mm 33 W/m2
11:24 11.9 °C 10.5 °C 1003.6 hPa SW 20.9 km/h 35.4 km/h 91% 1.52 mm 37 W/m2
11:29 11.9 °C 10.5 °C 1003.3 hPa SW 15.3 km/h 29 km/h 91% 1.52 mm 30 W/m2
11:34 11.9 °C 10.5 °C 1003.3 hPa SSW 18.2 km/h 38.6 km/h 91% 1.52 mm 28 W/m2
11:39 11.9 °C 10.5 °C 1003.3 hPa SW 20.9 km/h 40.2 km/h 91% 1.52 mm 32 W/m2
11:44 11.9 °C 10.4 °C 1002.9 hPa South 12.9 km/h 37 km/h 90.4% 1.52 mm 32 W/m2
11:49 11.9 °C 10.3 °C 1003.3 hPa South 17.7 km/h 40.2 km/h 90% 1.27 mm 28 W/m2
11:54 12 °C 10.4 °C 1002.9 hPa SSW 14.2 km/h 33.8 km/h 90% 1.52 mm 33 W/m2
11:59 12.1 °C 10.5 °C 1002.6 hPa SSW 23.5 km/h 48.3 km/h 90% 1.52 mm 37 W/m2
12:04 12.1 °C 10.5 °C 1002.6 hPa SSW 16.7 km/h 37 km/h 90% 1.52 mm 56 W/m2
12:09 12.1 °C 10.5 °C 1002.3 hPa South 26.4 km/h 41.8 km/h 90% 1.52 mm 46 W/m2
12:14 12.2 °C 10.6 °C 1002.3 hPa SSW 24.8 km/h 43.5 km/h 90% 1.52 mm 49 W/m2
12:19 12.2 °C 10.6 °C 1001.9 hPa SSW 26.1 km/h 48.3 km/h 90% 1.52 mm 46 W/m2
12:24 12.2 °C 10.6 °C 1001.9 hPa SW 25.7 km/h 51.5 km/h 89.8% 1.52 mm 51 W/m2
12:29 12.2 °C 10.4 °C 1001.9 hPa SW 17.7 km/h 51.5 km/h 89% 1.52 mm 42 W/m2
12:34 12.2 °C 10.4 °C 1001.6 hPa SW 19.2 km/h 37 km/h 89% 1.52 mm 53 W/m2
12:39 12.2 °C 10.4 °C 1001.6 hPa South 18 km/h 40.2 km/h 89% 1.27 mm 53 W/m2
12:44 12.2 °C 10.3 °C 1001.2 hPa SSW 20.9 km/h 33.8 km/h 89% 1.27 mm 49 W/m2
12:49 12.1 °C 10.5 °C 1001.2 hPa SW 20.6 km/h 41.8 km/h 89.8% 1.27 mm 51 W/m2
12:54 12.1 °C 10.5 °C 1000.9 hPa SW 20.3 km/h 37 km/h 90% 1.27 mm 49 W/m2
12:59 12.2 °C 10.5 °C 1000.9 hPa SSW 22.5 km/h 40.2 km/h 89.8% 1.27 mm 28 W/m2
13:04 12.1 °C 10.5 °C 1000.6 hPa SSW 17.1 km/h 38.6 km/h 90% 1.27 mm 26 W/m2
13:09 12.1 °C 10.5 °C 1000.6 hPa SSW 15.4 km/h 46.7 km/h 90% 1.27 mm 28 W/m2
13:14 12.1 °C 10.5 °C 1000.2 hPa SW 16.6 km/h 46.7 km/h 90% 1.27 mm 28 W/m2
13:19 12.1 °C 10.5 °C 1000.2 hPa SSW 31.4 km/h 46.7 km/h 90% 1.52 mm 26 W/m2
13:24 12.1 °C 10.5 °C 1000.2 hPa SW 20.9 km/h 48.3 km/h 90% 1.52 mm 26 W/m2
13:29 12.1 °C 10.5 °C 1000.2 hPa SSW 23.2 km/h 45.1 km/h 90% 1.52 mm 25 W/m2
13:34 12.1 °C 10.5 °C 1000.2 hPa SW 26.1 km/h 49.9 km/h 90% 1.52 mm 32 W/m2
13:39 12.2 °C 10.5 °C 1000.2 hPa SSW 20.4 km/h 54.7 km/h 89.4% 1.52 mm 25 W/m2
13:44 12.2 °C 10.4 °C 1000.2 hPa SW 24.1 km/h 38.6 km/h 89% 1.52 mm 28 W/m2
13:49 12.2 °C 10.4 °C 1000.2 hPa SW 25.4 km/h 45.1 km/h 89% 2.03 mm 33 W/m2
13:54 12.2 °C 10.4 °C 1000.2 hPa SW 21.6 km/h 46.7 km/h 89% 2.03 mm 21 W/m2
13:59 12.1 °C 10.4 °C 999.9 hPa SW 18 km/h 33.8 km/h 89.6% 2.29 mm 16 W/m2
14:04 12.1 °C 10.5 °C 999.5 hPa SSW 23.2 km/h 41.8 km/h 90% 2.54 mm 16 W/m2
14:09 11.9 °C 10.3 °C 999.2 hPa SW 21.6 km/h 33.8 km/h 90% 2.54 mm 21 W/m2
14:14 11.9 °C 10.3 °C 999.2 hPa SSW 16.1 km/h 30.6 km/h 90% 2.54 mm 19 W/m2
14:19 11.9 °C 10.3 °C 998.9 hPa SSW 20.9 km/h 41.8 km/h 90% 2.54 mm 16 W/m2
14:24 11.9 °C 10.6 °C 998.9 hPa SW 20.6 km/h 49.9 km/h 91% 2.79 mm 28 W/m2
14:29 12.1 °C 10.7 °C 998.5 hPa SSW 20.9 km/h 54.7 km/h 90.8% 2.79 mm 30 W/m2
14:34 12.1 °C 10.5 °C 998.5 hPa SSW 17.9 km/h 35.4 km/h 90% 2.79 mm 25 W/m2
14:39 12.2 °C 10.6 °C 998.5 hPa SW 25.7 km/h 54.7 km/h 90% 2.54 mm 19 W/m2
14:44 12.2 °C 10.6 °C 998.2 hPa SSW 28.6 km/h 45.1 km/h 90% 2.54 mm 33 W/m2
14:49 12.2 °C 10.6 °C 997.9 hPa SSW 26.4 km/h 45.1 km/h 90% 2.29 mm 49 W/m2
14:54 12.3 °C 10.7 °C 997.9 hPa SW 16.1 km/h 45.1 km/h 90% 2.29 mm 40 W/m2
14:59 12.3 °C 10.7 °C 997.5 hPa SSW 15.1 km/h 43.5 km/h 90% 1.78 mm 28 W/m2
15:04 12.3 °C 10.7 °C 997.5 hPa SSW 20 km/h 46.7 km/h 90% 1.52 mm 19 W/m2
15:09 12.3 °C 10.7 °C 997.5 hPa SW 20.3 km/h 49.9 km/h 90% 1.52 mm 19 W/m2
15:14 12.6 °C 10.8 °C 997.5 hPa SSW 35.6 km/h 62.8 km/h 89.6% 1.52 mm 16 W/m2
15:19 12.6 °C 10.7 °C 997.2 hPa SSW 28.3 km/h 59.5 km/h 89% 1.52 mm 18 W/m2
15:24 12.6 °C 10.8 °C 997.2 hPa SW 27.7 km/h 62.8 km/h 89% 1.52 mm 12 W/m2
15:29 12.6 °C 10.8 °C 997.2 hPa SW 22.9 km/h 53.1 km/h 89% 1.02 mm 19 W/m2
15:34 12.6 °C 10.8 °C 996.8 hPa SW 18.7 km/h 57.9 km/h 89% 0.76 mm 21 W/m2
15:39 12.6 °C 10.8 °C 996.5 hPa SW 18.7 km/h 40.2 km/h 89% 0.76 mm 33 W/m2
15:44 12.5 °C 10.7 °C 996.5 hPa SSE 22.9 km/h 49.9 km/h 89.2% 0.76 mm 26 W/m2
15:49 12.4 °C 10.8 °C 996.8 hPa SW 23.8 km/h 51.5 km/h 90% 0.51 mm 21 W/m2
15:54 12.6 °C 11 °C 996.8 hPa SW 24.5 km/h 46.7 km/h 90% 0.51 mm 19 W/m2
15:59 12.6 °C 10.8 °C 996.5 hPa SW 34 km/h 61.2 km/h 89.4% 0.51 mm 19 W/m2
16:04 12.6 °C 10.8 °C 996.2 hPa SSW 38.1 km/h 61.2 km/h 89% 0.51 mm 18 W/m2
16:09 12.7 °C 10.8 °C 996.2 hPa SW 29.6 km/h 57.9 km/h 88.6% 0.51 mm 19 W/m2
16:14 12.7 °C 10.8 °C 996.2 hPa SW 21.9 km/h 57.9 km/h 88.6% 0.51 mm 12 W/m2
16:19 12.5 °C 10.7 °C 995.8 hPa SW 29 km/h 56.3 km/h 89% 0.25 mm 11 W/m2
16:24 12.3 °C 10.7 °C 995.8 hPa SSW 26.4 km/h 54.7 km/h 89.4% 0 mm 7 W/m2
16:29 12.3 °C 10.7 °C 995.8 hPa SSW 32 km/h 53.1 km/h 90% 0.25 mm 7 W/m2
16:34 12.2 °C 10.7 °C 995.8 hPa SSW 25.7 km/h 64.4 km/h 90% 0.25 mm 7 W/m2
16:39 12.3 °C 10.7 °C 995.8 hPa SSW 22.2 km/h 46.7 km/h 90% 0.25 mm 9 W/m2
16:44 12.3 °C 10.7 °C 995.8 hPa SSW 27 km/h 53.1 km/h 90% 0.25 mm 7 W/m2
16:49 12.3 °C 10.7 °C 995.8 hPa SSW 24.6 km/h 40.2 km/h 90% 0.25 mm 0 W/m2
16:54 12.3 °C 10.7 °C 995.8 hPa SSW 21.2 km/h 53.1 km/h 90% 0.25 mm 0 W/m2
16:59 12.3 °C 10.7 °C 995.8 hPa SW 32.2 km/h 53.1 km/h 90% 0.25 mm 0 W/m2
17:04 12.3 °C 10.7 °C 995.8 hPa SW 25.1 km/h 51.5 km/h 90% 0.25 mm 0 W/m2
17:09 12.3 °C 10.7 °C 995.5 hPa WSW 18 km/h 53.1 km/h 90% 0.51 mm 0 W/m2
17:14 12.3 °C 10.7 °C 995.5 hPa SW 28.8 km/h 48.3 km/h 90% 0.51 mm 0 W/m2
17:19 12.4 °C 10.8 °C 995.5 hPa SW 25.3 km/h 48.3 km/h 90% 0.51 mm 0 W/m2
17:24 12.4 °C 10.8 °C 995.5 hPa SW 25.7 km/h 48.3 km/h 90% 0.51 mm 0 W/m2
17:29 12.4 °C 10.8 °C 995.5 hPa SW 24.1 km/h 49.9 km/h 90% 0.51 mm 0 W/m2
17:34 12.3 °C 10.7 °C 995.5 hPa SSW 18 km/h 41.8 km/h 90.2% 0.25 mm 0 W/m2
17:39 12.3 °C 10.9 °C 995.1 hPa SSW 21.7 km/h 43.5 km/h 91% 0.51 mm 0 W/m2
17:44 12.3 °C 10.9 °C 995.5 hPa SW 16.7 km/h 41.8 km/h 91% 0.51 mm 0 W/m2
17:49 12.4 °C 10.9 °C 995.1 hPa SSW 27.4 km/h 45.1 km/h 90.8% 0.51 mm 0 W/m2
17:54 12.4 °C 10.8 °C 995.1 hPa WSW 17.1 km/h 40.2 km/h 90% 0.51 mm 0 W/m2
17:59 12.4 °C 10.8 °C 995.5 hPa SW 19.2 km/h 45.1 km/h 90% 0.51 mm 0 W/m2
18:04 12.4 °C 11.1 °C 995.5 hPa SSW 28 km/h 51.5 km/h 91% 0.51 mm 0 W/m2
18:09 12.5 °C 11.1 °C 995.5 hPa SW 22.5 km/h 41.8 km/h 91% 0.51 mm 0 W/m2
18:14 12.5 °C 11.1 °C 995.5 hPa SSW 16.3 km/h 43.5 km/h 91% 0.25 mm 0 W/m2
18:19 12.6 °C 11.2 °C 995.5 hPa WSW 14 km/h 35.4 km/h 91% 0.25 mm 0 W/m2
18:24 12.6 °C 11.2 °C 995.5 hPa SW 19 km/h 35.4 km/h 91% 0.25 mm 0 W/m2
18:29 12.7 °C 11.3 °C 995.8 hPa SW 25.7 km/h 51.5 km/h 91% 0.25 mm 0 W/m2
18:34 12.6 °C 11.2 °C 995.8 hPa SW 24.5 km/h 43.5 km/h 91% 0.25 mm 0 W/m2
18:39 12.6 °C 11.2 °C 995.8 hPa SW 20.9 km/h 37 km/h 91% 0.25 mm 0 W/m2
18:44 12.6 °C 11.2 °C 995.8 hPa SW 22.9 km/h 38.6 km/h 91% 0.25 mm 0 W/m2
18:49 12.7 °C 11.3 °C 995.8 hPa SW 23.5 km/h 45.1 km/h 91% 0.25 mm 0 W/m2
18:54 12.8 °C 11.4 °C 995.8 hPa SW 17.1 km/h 45.1 km/h 91% 0.25 mm 0 W/m2
18:59 12.7 °C 11.3 °C 996.2 hPa SW 16.4 km/h 30.6 km/h 91% 0.25 mm 0 W/m2
19:04 12.8 °C 11.5 °C 996.2 hPa SW 24.5 km/h 46.7 km/h 92% 0.25 mm 0 W/m2
19:09 12.8 °C 11.5 °C 995.8 hPa SSW 22.5 km/h 37 km/h 92% 0.25 mm 0 W/m2
19:14 12.8 °C 11.5 °C 995.8 hPa SW 15.8 km/h 43.5 km/h 92% 0.25 mm 0 W/m2
19:19 12.8 °C 11.5 °C 995.8 hPa SW 17.9 km/h 35.4 km/h 92% 0.25 mm 0 W/m2
19:24 12.8 °C 11.5 °C 996.2 hPa SW 19 km/h 35.4 km/h 92% 0.25 mm 0 W/m2
19:29 12.8 °C 11.5 °C 995.8 hPa WSW 21.2 km/h 37 km/h 92% 0.25 mm 0 W/m2
19:34 12.8 °C 11.5 °C 996.2 hPa WSW 16.7 km/h 30.6 km/h 92% 0.25 mm 0 W/m2
19:39 12.8 °C 11.5 °C 996.2 hPa SW 17.4 km/h 35.4 km/h 92% 0.25 mm 0 W/m2
19:44 12.9 °C 11.6 °C 996.2 hPa WSW 11.6 km/h 30.6 km/h 92% 0 mm 0 W/m2
19:49 12.9 °C 11.6 °C 995.8 hPa WSW 13.2 km/h 29 km/h 92% 0 mm 0 W/m2
19:54 12.9 °C 11.6 °C 996.2 hPa WSW 13.2 km/h 27.4 km/h 91.6% 0 mm 0 W/m2
19:59 13.1 °C 11.7 °C 995.8 hPa WSW 15.3 km/h 29 km/h 91% 0 mm 0 W/m2
20:04 13.2 °C 11.7 °C 995.8 hPa WSW 15.8 km/h 29 km/h 91% 0 mm 0 W/m2
20:09 13.2 °C 11.8 °C 995.8 hPa SW 17.4 km/h 32.2 km/h 90.8% 0 mm 0 W/m2
20:14 13.3 °C 11.7 °C 996.2 hPa SW 21.9 km/h 46.7 km/h 90% 0.25 mm 0 W/m2
20:19 13.3 °C 11.8 °C 996.2 hPa WSW 15.1 km/h 37 km/h 90% 0.25 mm 0 W/m2
20:24 13.4 °C 11.6 °C 996.2 hPa WSW 14.5 km/h 35.4 km/h 89.2% 0.25 mm 0 W/m2
20:29 13.3 °C 11.5 °C 996.2 hPa SW 14.2 km/h 30.6 km/h 89% 0.25 mm 0 W/m2
20:34 13.3 °C 11.5 °C 996.2 hPa SW 13 km/h 30.6 km/h 89% 0.25 mm 0 W/m2
20:39 13.3 °C 11.5 °C 996.2 hPa SW 15.8 km/h 24.1 km/h 89% 0.25 mm 0 W/m2
20:44 13.3 °C 11.5 °C 995.8 hPa SW 14.5 km/h 22.5 km/h 89% 0.25 mm 0 W/m2
20:49 13.2 °C 11.4 °C 996.2 hPa SW 11.6 km/h 20.9 km/h 89% 0.25 mm 0 W/m2
20:54 13.2 °C 11.5 °C 995.8 hPa SW 7.2 km/h 22.5 km/h 89.8% 0.25 mm 0 W/m2
20:59 13.1 °C 11.5 °C 995.8 hPa SW 15.1 km/h 24.1 km/h 90% 0.25 mm 0 W/m2
21:04 13.2 °C 11.6 °C 995.8 hPa SW 14.2 km/h 29 km/h 90% 0.25 mm 0 W/m2
21:09 13.1 °C 11.5 °C 995.8 hPa SW 16.1 km/h 27.4 km/h 90% 0.25 mm 0 W/m2
21:14 13 °C 11.4 °C 995.5 hPa SSW 12.1 km/h 27.4 km/h 90.2% 0.25 mm 0 W/m2
21:19 12.9 °C 11.5 °C 995.5 hPa SSW 10.3 km/h 24.1 km/h 90.8% 0.25 mm 0 W/m2
21:24 12.9 °C 11.5 °C 995.5 hPa SW 12.6 km/h 20.9 km/h 91% 0.25 mm 0 W/m2
21:29 12.9 °C 11.5 °C 995.5 hPa SW 17.1 km/h 25.7 km/h 91% 0.51 mm 0 W/m2
21:34 12.8 °C 11.4 °C 995.1 hPa SW 17.7 km/h 29 km/h 91% 0.51 mm 0 W/m2
21:39 12.8 °C 11.4 °C 995.1 hPa SSE 14.8 km/h 29 km/h 91.8% 0.76 mm 0 W/m2
21:44 12.7 °C 11.4 °C 995.1 hPa SSW 14.2 km/h 27.4 km/h 92% 0.76 mm 0 W/m2
21:49 12.8 °C 11.5 °C 995.1 hPa SW 16.1 km/h 33.8 km/h 92% 1.02 mm 0 W/m2
21:54 12.8 °C 11.5 °C 994.8 hPa SW 23.2 km/h 40.2 km/h 92% 1.27 mm 0 W/m2
21:59 12.8 °C 11.5 °C 994.8 hPa SSW 13.8 km/h 37 km/h 92% 1.27 mm 0 W/m2
22:04 12.7 °C 11.4 °C 994.5 hPa SSW 13.5 km/h 38.6 km/h 92% 1.52 mm 0 W/m2
22:09 12.7 °C 11.4 °C 994.1 hPa SSW 18.3 km/h 35.4 km/h 92% 1.52 mm 0 W/m2
22:14 12.7 °C 11.4 °C 994.1 hPa South 19.6 km/h 43.5 km/h 92% 1.52 mm 0 W/m2
22:18 12.8 °C 11.4 °C 994.1 hPa SW 21.4 km/h 40.2 km/h 91.5% 1.52 mm 0 W/m2
22:24 12.8 °C 11.4 °C 994.1 hPa SSW 21.4 km/h 37 km/h 91.6% 1.27 mm 0 W/m2
22:29 12.8 °C 11.4 °C 993.8 hPa SW 21.2 km/h 40.2 km/h 91% 1.27 mm 0 W/m2
22:34 12.9 °C 11.5 °C 993.8 hPa SW 14.2 km/h 38.6 km/h 91% 1.02 mm 0 W/m2
22:39 12.9 °C 11.5 °C 993.8 hPa SSW 21.6 km/h 45.1 km/h 91% 0.76 mm 0 W/m2
22:44 12.9 °C 11.5 °C 993.5 hPa SW 25.1 km/h 48.3 km/h 91% 0.51 mm 0 W/m2
22:49 12.9 °C 11.5 °C 993.5 hPa SW 24.1 km/h 62.8 km/h 91% 0.51 mm 0 W/m2
22:54 12.9 °C 11.5 °C 993.1 hPa SW 16.4 km/h 48.3 km/h 91% 0.51 mm 0 W/m2
22:59 12.9 °C 11.5 °C 993.1 hPa SSW 23.8 km/h 56.3 km/h 91% 0.51 mm 0 W/m2
23:04 12.9 °C 11.5 °C 993.1 hPa SSW 21.2 km/h 43.5 km/h 91% 0.51 mm 0 W/m2
23:09 12.9 °C 11.5 °C 993.1 hPa SW 23.8 km/h 46.7 km/h 91% 0.25 mm 0 W/m2
23:14 12.9 °C 11.5 °C 992.4 hPa SSW 28.2 km/h 48.3 km/h 91% 0.25 mm 0 W/m2
23:19 12.9 °C 11.5 °C 992.4 hPa SW 19.6 km/h 48.3 km/h 91% 0.25 mm 0 W/m2
23:24 13 °C 11.6 °C 992.4 hPa SW 25.4 km/h 43.5 km/h 91% 0.25 mm 0 W/m2
23:29 13.1 °C 11.7 °C 992.8 hPa SW 25.4 km/h 45.1 km/h 91% 0.25 mm 0 W/m2
23:34 13.1 °C 11.6 °C 992.8 hPa SSW 22 km/h 51.5 km/h 90.6% 0.25 mm 0 W/m2
23:39 13.1 °C 11.6 °C 992.4 hPa WSW 19.6 km/h 54.7 km/h 90.2% 0.25 mm 0 W/m2
23:44 13 °C 11.6 °C 992.8 hPa SW 21.4 km/h 54.7 km/h 90.8% 0.25 mm 0 W/m2
23:49 13 °C 11.6 °C 992.8 hPa SW 28.8 km/h 56.3 km/h 91% 0.25 mm 0 W/m2
23:54 12.9 °C 11.6 °C 992.8 hPa SW 18.7 km/h 57.9 km/h 91% 0 mm 0 W/m2
23:59 12.9 °C 11.5 °C 992.8 hPa South 21.2 km/h 43.5 km/h 91% 0 mm 0 W/m2
Bath Spa Weather
Compliments of Weather Underground - 2 mb